Imperial, CA

4:37 AM PDT on October 01, 2016 (GMT -0700)
Imperial County

Weather History for KIPL - April, 2013

Change the Weather History Date:

Thursday, April 11, 2013

  Actual Average Record
Temperature  
Mean Temperature 74 °F -  
Max Temperature 93 °F 85 °F 97 °F (1988)
Min Temperature 57 °F 56 °F 46 °F (1963)
Cooling Degree Days 9    
Growing Degree Days 24 (Base 50)    
Moisture  
Dew Point 32 °F    
Average Humidity 25    
Maximum Humidity 50    
Minimum Humidity 10    
Precipitation  
Precipitation 0.00 in - - ()
Sea Level Pressure  
Sea Level Pressure 29.77 in    
Wind  
Wind Speed 6 mph (SSE)    
Max Wind Speed 16 mph    
Max Gust Speed 22 mph    
Visibility 10 miles    
Events      
Averages and records for this station are not official NWS values.
T = Trace of Precipitation, MM = Missing Value Source: NWS Daily Summary

Daily Weather History Graph

Daily Weather History Graph

Search for Another Location

Airport or City:

Trip Planner

Search our weather history database for the weather conditions in past years. The results will help you decide how hot, cold, wet, or windy it might be!

Date:

Astronomy

Apr. 11, 2013 Rise Set
Actual Time 6:17 AM PDT 7:09 PM PDT
Civil Twilight 5:51 AM PDT 7:35 PM PDT
Nautical Twilight 5:22 AM PDT 8:04 PM PDT
Astronomical Twilight 4:51 AM PDT 8:35 PM PDT
Moon 6:56 AM PDT (4/11) 8:42 PM PDT (4/11)
Length of Visible Light 13h 43m
Length of Day
12h 52m
New Moon, 2% of the Moon is Illuminated
Apr 11
New Moon
Apr 18
First Quarter
Apr 25
Full
May 2
Last Quarter
May 9
New

Hourly Weather History & Observations

Time (PDT) Temp. Dew Point Humidity Pressure Visibility Wind Dir Wind Speed Gust Speed Precip Events Conditions
12:53 AM 57.9 °F 34.0 °F 41% 29.91 in 10.0 mi WSW 5.8 mph - N/A   Clear
1:53 AM 63.0 °F 26.1 °F 25% 29.89 in 10.0 mi NW 3.5 mph - N/A   Clear
2:53 AM 57.9 °F 27.0 °F 31% 29.88 in 10.0 mi SSE 3.5 mph - N/A   Clear
3:53 AM 57.0 °F 30.0 °F 36% 29.87 in 10.0 mi SW 4.6 mph - N/A   Clear
4:53 AM 57.9 °F 25.0 °F 28% 29.86 in 10.0 mi South 6.9 mph - N/A   Clear
5:53 AM 57.9 °F 26.1 °F 30% 29.85 in 10.0 mi Calm Calm - N/A   Clear
6:53 AM 57.0 °F 27.0 °F 32% 29.86 in 10.0 mi Calm Calm - N/A   Clear
7:53 AM 60.1 °F 32.0 °F 35% 29.87 in 10.0 mi SSE 4.6 mph - N/A   Clear
8:53 AM 68.0 °F 36.0 °F 31% 29.86 in 10.0 mi SE 6.9 mph - N/A   Clear
9:53 AM 75.2 °F 37.4 °F 25% 29.84 in 10.0 mi SE 5.8 mph - N/A   Clear
10:53 AM 81.0 °F 37.0 °F 21% 29.82 in 10.0 mi SE 11.5 mph - N/A   Clear
11:53 AM 86.0 °F 30.0 °F 13% 29.79 in 10.0 mi SE 12.7 mph - N/A   Clear
12:53 PM 88.0 °F 28.0 °F 12% 29.77 in 10.0 mi SE 10.4 mph - N/A   Clear
1:53 PM 89.1 °F 28.0 °F 11% 29.73 in 10.0 mi Calm Calm - N/A   Clear
2:53 PM 91.0 °F 28.0 °F 10% 29.70 in 10.0 mi NNE 8.1 mph - N/A   Clear
3:53 PM 91.9 °F 28.0 °F 10% 29.66 in 10.0 mi WSW 9.2 mph 20.7 mph N/A   Clear
4:53 PM 90.0 °F 37.0 °F 15% 29.65 in 10.0 mi SE 16.1 mph 21.9 mph N/A   Clear
5:53 PM 86.0 °F 36.0 °F 17% 29.64 in 10.0 mi SSE 15.0 mph - N/A   Clear
6:53 PM 82.9 °F 34.0 °F 17% 29.65 in 10.0 mi SSE 9.2 mph - N/A   Clear
7:53 PM 78.1 °F 30.0 °F 17% 29.65 in 10.0 mi SSE 10.4 mph - N/A   Clear
8:53 PM 73.9 °F 35.1 °F 24% 29.68 in 10.0 mi SSE 11.5 mph - N/A   Clear
9:53 PM 71.1 °F 37.9 °F 30% 29.69 in 10.0 mi SSE 9.2 mph - N/A   Clear
10:53 PM 68.0 °F 43.0 °F 40% 29.68 in 10.0 mi SE 4.6 mph - N/A   Clear
11:53 PM 64.9 °F 46.0 °F 50% 29.68 in 10.0 mi ESE 4.6 mph - N/A   Clear